CAPE
392 273 329 533 374 392 398 455 480 511 366 417 402 408 382 1097 1004 818 778 758 788 791 778 803 810 851 815 791 811 840 869 780 661 516 620 726 747 810 119 44 33 286 518 600
408 270 367 269 268 422 582 534 584 554 552 444 371 396 320 455 847 857 810 807 817 871 886 870 906 890 896 921 901 942 964 874 788 611 607 828 772 781 238 199 339 654 776 732
130 226 378 373 350 465 630 636 564 282 510 481 495 245 81 303 391 498 548 534 611 743 847 937 952 977 1008 1033 955 975 1031 964 916 747 745 975 917 935 589 461 204 438 565 858
0 45 264 460 469 311 318 336 395 451 393 190 200 179 62 204 283 494 544 570 591 625 614 734 919 948 1042 1076 1081 1060 1018 972 1015 926 1013 1060 844 928 838 633 394 321 583 875
0 5 158 222 235 205 197 168 133 408 311 237 179 156 104 88 288 284 367 427 541 588 656 677 802 878 997 1061 1143 1053 1016 1087 1085 1057 1101 1105 912 814 756 811 802 772 670 575
0 32 167 175 190 201 33 58 368 419 291 182 106 115 65 93 74 79 137 57 92 464 668 717 832 910 1005 1079 1109 1112 1035 1115 1171 1136 1202 1145 1045 906 924 920 894 866 789 702
0 31 135 137 205 63 0 197 299 196 173 158 99 121 119 102 85 36 7 23 103 411 624 735 700 852 954 1065 1132 1143 1118 1164 1209 1248 1272 1223 1149 1002 978 929 901 877 755 690
0 0 106 78 106 0 0 290 234 28 27 15 120 126 153 109 76 70 61 84 424 525 436 585 688 769 1017 1113 1179 1211 1237 1224 1275 1337 1320 1248 1202 1108 1064 1020 1011 947 921 899
0 0 0 3 25 0 0 37 138 94 23 17 66 139 99 20 2 35 132 140 168 140 585 651 732 810 1077 1166 1210 1259 1351 1324 1313 1277 1273 1352 1317 1192 1141 1150 1139 1132 1110 1161
0 0 0 0 42 0 0 0 0 3 16 52 162 102 31 7 11 11 62 240 193 129 152 202 709 840 826 1078 1196 1233 1359 1384 1397 1263 1243 1378 1320 1193 1232 1285 1176 1247 1191 1169
0 0 0 0 0 4 0 6 0 0 25 3 27 93 32 6 26 25 34 45 66 83 308 345 527 888 907 947 1208 1363 1507 1468 1518 1514 1489 1428 1371 1370 1310 1375 1345 1428 1498 1374
0 0 0 0 0 0 0 0 4 11 32 51 14 21 86 36 34 21 0 1 42 307 400 397 614 923 1011 1055 1104 1449 1601 1673 1647 1638 1579 1507 1521 1509 1507 1568 1551 1698 1715 1686
0 0 0 0 0 0 0 0 0 8 31 33 9 6 12 12 8 18 0 0 0 45 457 636 809 996 1071 1148 1182 1238 1518 1567 1604 1756 1857 1775 1771 1729 1692 1640 1613 1642 1778 1722
0 0 0 0 0 0 0 0 0 5 70 92 21 3 14 18 7 14 0 0 11 265 718 777 985 1230 1250 1208 1321 1341 1481 1640 1570 1725 1830 1938 1958 1962 1941 1918 1908 1905 1821 1713
0 0 0 0 0 6 6 0 0 1 55 32 43 19 42 41 34 5 0 20 701 412 893 967 996 1297 1384 1391 1386 1450 1489 1892 1902 1950 2005 2004 2013 2015 2024 2005 1978 1976 1940 1760
0 0 0 0 0 21 2 11 47 165 7 18 14 2 33 90 56 8 551 1283 1607 1573 1642 1650 1644 1270 845 1406 1587 1557 1614 1937 2121 2129 2114 2127 2160 2205 2199 2160 2141 2249 2165 1495
0 0 0 0 0 30 5 308 350 287 204 21 0 7 164 136 565 1308 1454 1437 1511 1652 1992 2111 2100 2184 2207 2039 1313 1608 1756 1990 2124 2129 2199 2231 2236 2234 2291 2289 2275 2338 2214 1954
0 0 0 0 0 17 215 356 502 544 477 228 109 153 86 557 1067 1107 1214 1268 1362 1497 1802 2254 2473 2514 2477 2604 2341 1387 1453 1840 2139 2151 2134 2256 2326 2287 2298 2340 2327 2383 2065 2053
0 0 0 0 0 181 435 470 464 477 463 474 367 647 973 929 721 776 952 1038 1030 1227 1451 1893 2317 2473 2369 2778 2670 2417 1586 1703 1972 2044 2059 2058 2209 2293 2301 2357 2370 2244 1910 1938
16 0 0 0 167 171 286 319 385 456 547 813 958 986 1109 1008 591 575 905 936 1058 1050 1020 1235 1667 2202 2225 2338 2820 2808 2712 2541 2253 2117 2033 2009 2046 2099 2141 2139 2277 2039 1892 1735
27 14 5 33 20 7 141 241 206 248 308 726 1092 1082 1040 974 559 514 809 896 958 982 859 613 1092 1391 1997 2242 2387 2632 2773 2737 2782 2711 2682 2575 2416 2251 2161 2185 2115 1884 1691 1494
5 1 58 97 55 7 68 77 137 74 275 437 401 765 786 839 775 751 742 898 942 879 332 20 217 586 913 1325 1870 2226 2492 2523 2756 3140 2885 2870 2799 2631 2453 2284 2135 1682 1451 1414
39 49 49 4 3 19 30 46 76 100 103 140 147 123 91 151 319 441 378 197 53 1 0 0 0 0 0 7 104 728 1164 1827 2157 2860 2941 2957 2671 2386 2260 2315 1989 1675 1368 1330
27 36 6 0 0 76 104 93 113 132 138 126 120 111 53 14 3 0 0 0 0 0 0 0 0 0 0 0 0 0 446 503 911 1447 2129 2537 2614 2096 1936 1704 879 790 886 1019
21 25 1 6 9 58 174 167 150 97 105 130 176 157 119 67 12 3 0 0 0 0 0 0 0 0 0 0 0 0 0 107 352 341 676 1065 1992 2028 1565 1018 666 432 292 517
37 42 16 38 20 25 33 58 72 92 86 85 56 44 31 8 0 0 0 0 0 0 0 0 0 0 0 0 0 0 0 0 75 245 202 184 449 731 854 662 608 206 84 22
CIN
-115 -129 -46 -31 -45 -14 -14 -21 -18 -12 -138 -130 -63 -45 -44 -214 -229 -298 -300 -260 -292 -238 -202 -199 -109 -78 -89 -131 -129 -99 -76 -53 -39 -46 -78 -49 -48 -43 -153 -73 -148 -62 -69 -36
-110 -115 -73 -99 -83 -25 -7 -17 -25 -35 -51 -25 -25 -36 -93 -219 -262 -284 -301 -323 -300 -276 -239 -251 -183 -91 -66 -82 -131 -125 -93 -71 -51 -45 -79 -46 -63 -56 -104 -110 -52 -36 -27 -27
-219 -146 -108 -78 -78 -48 -24 -18 -17 -21 -127 -73 -42 -86 -172 -122 -169 -218 -201 -160 -181 -299 -290 -287 -231 -180 -99 -92 -92 -109 -109 -93 -62 -48 -117 -42 -48 -45 -78 -64 -84 -55 -36 -31
0 -265 -130 -71 -59 -91 -87 -40 -25 -57 -19 -40 -46 -84 -141 -85 -38 -137 -132 -109 -168 -122 -61 -337 -254 -212 -153 -112 -94 -122 -109 -114 -79 -69 -90 -63 -92 -79 -75 -65 -47 -80 -36 -24
0 -153 -153 -133 -101 -123 -116 -145 -95 -30 -44 -30 -51 -60 -103 -100 -25 -82 -75 -84 -118 -92 -69 -173 -268 -260 -185 -132 -114 -136 -120 -107 -81 -92 -124 -92 -93 -74 -94 -62 -31 -13 -6 -4
0 -170 -196 -145 -151 -155 -225 -237 -73 -23 -41 -71 -98 -115 -133 -90 -70 -48 -44 -116 -85 -163 -87 -68 -300 -237 -207 -164 -108 -117 -158 -116 -76 -126 -119 -119 -113 -99 -98 -73 -50 -18 -12 -4
0 -236 -178 -156 -92 -157 0 -147 -48 -68 -86 -62 -149 -124 -88 -76 -78 -111 -98 -138 -60 -66 -104 -98 -109 -251 -232 -219 -282 -285 -189 -248 -106 -154 -143 -134 -129 -108 -105 -94 -70 -40 -23 -20
0 0 -190 -163 -97 0 0 -63 -85 -158 -126 -148 -166 -92 -71 -113 -126 -105 -126 -138 -162 -136 -116 -50 -174 -372 -396 -389 -358 -332 -314 -248 -249 -207 -179 -153 -147 -152 -141 -116 -88 -72 -46 -17
0 0 0 -179 -144 0 0 -179 -101 -99 -163 -180 -155 -95 -97 -134 -190 -180 -116 -92 -48 -239 -306 -260 -128 -138 -416 -398 -324 -331 -357 -290 -209 -222 -211 -175 -163 -179 -170 -143 -114 -86 -64 -32
0 0 0 0 -155 0 0 0 -42 -60 -152 -142 -107 -141 -155 -182 -180 -159 -154 -56 -34 -45 -47 -63 -291 -184 -174 -368 -309 -311 -354 -320 -304 -265 -210 -167 -178 -186 -133 -132 -138 -99 -75 -63
0 0 0 0 0 -130 0 -240 -79 0 -101 -69 -139 -143 -156 -122 -196 -105 -140 -127 -75 -49 -25 -59 -366 -253 -176 -176 -368 -373 -365 -315 -331 -274 -202 -175 -161 -181 -166 -127 -129 -98 -56 -58
0 0 0 0 0 0 0 0 -72 -135 -112 -103 -144 -158 -168 -238 -259 -99 -6 -37 -78 -44 -26 -37 -191 -219 -200 -139 -127 -384 -335 -334 -341 -307 -247 -236 -202 -144 -164 -146 -131 -84 -59 -44
0 0 0 0 0 0 0 0 0 -73 -153 -62 -42 -128 -146 -214 -251 -98 0 0 0 -81 -21 -24 -34 -194 -134 -374 -300 -54 -407 -336 -290 -323 -290 -260 -249 -209 -145 -123 -103 -101 -72 -60
0 0 0 0 0 0 0 0 -24 -49 -67 -11 -28 -66 -56 -178 -154 -233 0 0 -169 -30 -18 -19 -41 -73 -110 -237 -326 -251 -450 -382 -325 -356 -311 -278 -264 -232 -168 -127 -106 -88 -78 -76
0 0 0 0 0 -1 -3 0 0 -8 -40 -43 -13 -36 -35 -51 -77 -98 0 -117 -180 -293 -14 -20 -37 -69 -102 -114 -236 -159 -203 -388 -350 -334 -300 -294 -288 -245 -167 -128 -106 -80 -51 -61
0 0 0 0 0 -2 -16 -134 -77 -197 -26 -55 -32 -186 -34 -22 -48 -306 -226 -176 -177 -275 -260 -245 -261 -286 -76 -136 -124 -150 -215 -393 -338 -320 -306 -278 -255 -238 -190 -139 -112 -51 -37 -48
0 0 0 0 0 -10 -6 -126 -173 -233 -294 -95 0 -31 -35 -70 -217 -171 -152 -149 -158 -145 -191 -204 -243 -281 -277 -243 -130 -216 -119 -360 -338 -286 -295 -251 -212 -226 -190 -148 -104 -62 -45 -57
0 0 0 0 -1 -1 -216 -139 -165 -179 -162 -168 -255 -194 -259 -285 -238 -183 -140 -120 -128 -144 -150 -172 -196 -207 -242 -322 -253 -125 -321 -127 -268 -207 -195 -216 -191 -170 -180 -143 -104 -47 -60 -38
0 0 0 0 0 -129 -98 -84 -62 -67 -173 -275 -427 -369 -269 -234 -182 -170 -159 -117 -96 -80 -127 -124 -129 -152 -154 -200 -264 -195 -108 -210 -168 -139 -101 -83 -191 -139 -122 -107 -94 -40 -51 -42
-29 -2 -2 0 -88 -53 -62 -55 -65 -54 -89 -155 -186 -202 -193 -160 -129 -121 -132 -120 -84 -78 -71 -104 -113 -119 -102 -133 -173 -149 -108 -83 -39 -27 -41 -39 -6 -151 -114 -96 -63 -50 -60 -35
-7 -6 -6 -164 -190 -34 -46 -78 -64 -39 -39 -129 -93 -101 -106 -92 -65 -69 -67 -60 -63 -49 -45 -36 -97 -86 -84 -87 -86 -77 -78 -42 -73 -37 -69 -45 -25 -10 -63 -65 -30 -24 -45 -30
-45 -1 -97 -97 -96 -71 -35 -35 -96 -52 -58 -51 -102 -54 -33 -34 -38 -24 -66 -44 -52 -56 -47 -106 -90 -68 -66 -67 -64 -38 -41 -35 -62 -83 -86 -62 -36 -24 -19 -15 -21 -40 -55 -45
-41 -80 -71 -68 -5 -74 -70 -50 -72 -45 -148 -145 -208 -128 -49 -151 -105 -85 -98 -74 -62 -8 0 0 0 0 0 -11 -638 -52 -43 -58 -48 -29 -44 -38 -36 -31 -20 -9 -8 -41 -47 -54
-49 -64 -43 0 -4 -66 -54 -35 -23 -30 -31 -33 -117 -91 -58 -49 -30 0 0 0 -3 0 0 0 0 0 0 0 0 0 -327 -314 -48 -67 -30 -19 -13 -30 -20 -5 -3 -12 -14 -43
-23 -33 -21 -54 -40 -69 -35 -26 -29 -29 -14 -122 -120 -90 -97 -65 -34 -54 0 0 0 0 0 0 0 0 0 0 0 0 0 -370 -288 -355 -62 -66 -12 -3 -36 -86 -89 -15 -15 -8
-48 -54 -54 -52 -32 -33 -88 -40 -37 -92 -102 -109 -83 -81 -57 -81 -12 0 0 0 0 0 0 0 0 0 0 0 0 0 0 0 -420 -295 -373 -390 -86 -44 -48 -64 -86 -224 -238 -218
Wind_Speed
15 13 10 9 4 10 9 10 10 9 12 3 5 4 9 13 20 26 24 15 14 21 23 22 26 31 24 22 23 23 19 16 14 10 12 11 11 11 8 nan nan 6 9 8
15 12 10 7 3 3 10 9 8 4 9 4 2 5 10 26 30 30 25 17 19 21 22 24 25 30 34 23 23 22 20 19 16 14 12 10 13 12 9 7 5 6 9 7
6 5 13 8 7 6 5 5 5 3 2 8 6 2 nan 11 20 21 21 20 19 20 22 22 24 23 21 24 25 25 23 21 18 17 14 11 11 12 12 9 6 6 8 7
nan nan 5 9 4 12 5 3 6 1 13 11 8 4 nan 3 5 13 14 7 9 14 13 17 21 24 25 26 26 23 22 21 17 19 17 15 13 13 13 12 10 9 10 11
nan nan 16 7 7 15 4 7 3 8 14 11 6 11 3 nan 9 7 5 12 15 25 28 19 17 22 25 25 25 24 22 21 17 17 16 16 13 12 14 14 12 11 11 10
nan nan 17 12 17 14 nan nan 18 15 16 12 10 13 nan nan nan nan 7 nan nan 24 25 21 14 16 21 25 26 25 26 23 18 17 13 18 16 14 14 15 15 14 14 13
nan nan 17 18 16 nan nan 24 15 15 15 5 nan 19 2 6 nan nan nan nan 4 14 17 15 16 17 20 25 27 27 27 25 22 19 14 15 14 15 17 18 18 17 13 14
nan nan 23 nan 17 nan nan 22 21 nan nan nan 17 15 8 8 nan nan nan nan 20 12 12 10 13 18 19 21 26 27 27 24 23 21 16 11 14 13 14 16 18 18 14 12
nan nan nan nan nan nan nan nan 18 nan nan nan nan 16 nan nan nan nan 4 19 16 9 12 10 9 10 17 22 23 26 27 24 21 20 17 16 13 15 16 16 16 19 18 15
nan nan nan nan nan nan nan nan nan nan nan nan 23 16 nan nan nan nan nan 6 4 5 2 2 13 10 13 16 19 22 24 27 24 21 20 20 19 17 16 17 17 18 18 18
nan nan nan nan nan nan nan nan nan nan nan nan nan nan nan nan nan nan nan nan nan nan 13 13 15 13 10 11 16 18 19 22 21 22 24 23 20 18 16 17 19 18 18 19
nan nan nan nan nan nan nan nan nan nan nan nan nan nan nan nan nan nan nan nan nan 16 15 12 18 11 6 10 14 16 17 21 22 23 23 23 20 20 20 21 21 20 16 17
nan nan nan nan nan nan nan nan nan nan nan nan nan nan nan nan nan nan nan nan nan nan 16 15 12 8 12 16 17 17 21 26 26 29 27 23 21 22 23 20 21 22 21 18
nan nan nan nan nan nan nan nan nan nan nan nan nan nan nan nan nan nan nan nan nan 19 13 7 2 8 12 12 18 24 25 26 27 31 30 28 26 24 24 24 25 23 23 24
nan nan nan nan nan nan nan nan nan nan nan nan nan nan nan nan nan nan nan nan 22 26 24 13 15 7 4 12 20 22 26 27 26 28 28 30 29 24 20 22 25 24 25 24
nan nan nan nan nan nan nan nan nan 32 nan nan nan nan nan nan nan nan 15 20 16 25 26 22 21 12 3 16 26 24 31 31 26 25 25 26 27 25 23 23 24 23 24 23
nan nan nan nan nan nan nan 30 25 28 25 nan nan nan 14 22 21 7 14 15 17 24 16 22 24 13 11 17 26 32 36 34 25 24 22 22 23 24 22 23 23 22 28 29
nan nan nan nan nan nan 29 39 36 39 30 28 18 16 nan 33 19 18 11 13 8 12 10 17 18 18 20 17 22 27 38 35 29 22 21 19 19 19 20 21 19 19 25 28
nan nan nan nan nan 32 31 33 31 27 34 35 28 29 29 28 25 26 20 19 20 16 16 13 18 24 26 27 26 33 34 33 33 22 20 20 19 20 23 22 21 19 22 24
nan nan nan nan 39 29 28 36 40 31 36 33 33 32 29 25 28 17 15 14 17 21 21 21 25 33 35 32 35 34 29 25 30 26 20 24 24 25 23 23 23 24 24 22
nan nan nan nan nan nan 37 34 39 42 28 31 36 34 37 35 20 13 22 27 25 24 23 29 31 35 36 40 36 33 31 31 26 28 26 26 28 26 22 26 29 24 25 22
nan nan nan nan nan nan nan nan 37 nan 38 35 32 33 29 29 28 29 32 33 31 31 31 nan 33 36 38 40 37 33 33 27 26 26 29 29 29 29 31 29 25 32 23 27
nan nan nan nan nan nan nan nan nan 40 36 34 39 38 nan 49 45 38 33 30 nan nan nan nan nan nan nan nan 38 33 27 28 30 30 27 28 28 33 33 33 29 28 26 28
nan nan nan nan nan nan 47 nan 44 47 47 43 43 42 nan nan nan nan nan nan nan nan nan nan nan nan nan nan nan nan 27 26 30 33 31 29 30 34 36 39 41 38 34 31
nan nan nan nan nan nan 49 45 41 nan 44 41 37 40 43 nan nan nan nan nan nan nan nan nan nan nan nan nan nan nan nan 33 33 33 36 40 44 47 50 50 55 46 47 43
nan nan nan nan nan nan nan nan nan nan nan nan nan nan nan nan nan nan nan nan nan nan nan nan nan nan nan nan nan nan nan nan nan 38 37 37 41 45 51 52 52 69 nan nan
Wind_Direction
177 173 156 164 139 138 143 112 74 97 107 22 359 78 73 74 71 60 53 67 43 34 27 23 27 3 359 359 353 354 340 337 331 322 316 312 317 306 292 nan nan 244 263 291
185 142 166 193 185 154 135 103 81 130 86 39 272 94 17 36 53 47 55 69 52 45 31 13 19 16 354 354 4 1 354 336 327 326 325 311 307 309 300 297 292 286 281 267
236 198 207 214 194 195 231 102 152 57 266 202 142 150 nan 12 64 73 84 102 82 61 49 17 1 6 345 354 352 354 354 347 331 321 305 291 281 288 297 292 300 302 314 288
nan nan 201 178 205 288 203 151 152 333 281 299 312 162 nan 267 268 17 42 69 67 23 32 20 355 356 354 351 346 352 355 352 342 318 312 307 304 302 305 306 306 309 317 315
nan nan 240 212 245 259 257 181 139 233 267 259 261 265 242 nan 241 264 80 46 11 13 5 358 354 353 352 344 347 347 353 349 341 338 330 323 299 298 302 301 316 316 309 305
nan nan 242 221 231 267 nan nan 235 244 268 249 232 259 nan nan nan nan 336 nan nan 4 357 347 332 349 350 345 335 336 345 352 348 338 338 340 327 313 303 307 309 307 306 302
nan nan 251 253 236 nan nan 261 254 250 254 262 nan 244 206 226 nan nan nan nan 316 339 356 355 341 353 350 343 343 336 345 350 348 351 343 350 352 336 326 315 307 308 301 299
nan nan 261 nan 273 nan nan 273 274 nan nan nan 258 261 249 258 nan nan nan nan 279 289 340 27 352 345 348 351 347 342 349 351 350 351 359 357 346 338 331 320 303 301 303 304
nan nan nan nan nan nan nan nan 264 nan nan nan nan 255 nan nan nan nan 289 262 280 250 302 334 318 346 345 346 351 347 348 356 359 4 352 355 356 356 345 328 311 298 301 299
nan nan nan nan nan nan nan nan nan nan nan nan 263 258 nan nan nan nan nan 247 276 248 264 276 323 323 330 344 344 343 346 352 347 349 350 348 355 357 351 331 328 309 304 303
nan nan nan nan nan nan nan nan nan nan nan nan nan nan nan nan nan nan nan nan nan nan 226 226 314 352 322 332 341 340 338 339 337 343 340 338 344 346 336 327 323 315 302 305
nan nan nan nan nan nan nan nan nan nan nan nan nan nan nan nan nan nan nan nan nan 255 217 238 310 332 352 350 351 352 350 358 350 341 336 340 342 335 331 326 326 318 300 295
nan nan nan nan nan nan nan nan nan nan nan nan nan nan nan nan nan nan nan nan nan nan 223 257 304 11 31 18 5 1 2 7 360 349 343 335 335 337 338 333 332 326 322 308
nan nan nan nan nan nan nan nan nan nan nan nan nan nan nan nan nan nan nan nan nan 189 195 238 282 37 32 15 2 359 354 351 348 345 345 344 343 342 336 337 334 333 333 325
nan nan nan nan nan nan nan nan nan nan nan nan nan nan nan nan nan nan nan nan 225 208 213 259 255 260 174 21 354 356 352 336 330 333 338 346 345 344 335 333 328 330 328 320
nan nan nan nan nan nan nan nan nan 222 nan nan nan nan nan nan nan nan 239 255 240 223 222 266 260 235 3 346 343 341 337 340 318 320 334 334 340 342 338 342 328 319 322 314
nan nan nan nan nan nan nan 210 242 236 219 nan nan nan 238 257 260 240 246 237 236 238 256 228 225 245 275 312 336 338 336 324 326 323 312 324 327 339 330 333 319 321 327 322
nan nan nan nan nan nan 236 240 251 241 228 224 232 225 nan 261 276 262 264 218 234 212 208 218 245 260 268 290 317 334 326 315 320 320 296 309 320 327 323 320 325 317 312 321
nan nan nan nan nan 242 243 232 230 245 227 223 241 259 256 271 268 249 241 238 249 244 252 269 276 277 277 278 294 307 311 304 303 304 288 288 298 306 314 322 322 311 305 312
nan nan nan nan 244 254 244 230 227 236 235 224 240 249 241 253 250 257 223 238 239 260 260 260 268 272 273 275 280 283 285 281 297 297 292 284 288 294 306 318 314 290 291 308
nan nan nan nan nan nan 238 214 226 241 254 247 248 247 248 252 265 252 231 235 248 258 255 262 267 278 280 274 271 264 264 259 265 277 283 287 288 291 293 292 287 283 290 297
nan nan nan nan nan nan nan nan 244 nan 246 256 251 242 248 254 242 237 240 246 247 247 250 nan 274 271 272 273 271 264 259 262 263 271 283 289 289 283 285 287 286 292 292 288
nan nan nan nan nan nan nan nan nan 237 243 247 255 247 nan 249 228 227 222 228 nan nan nan nan nan nan nan nan 272 269 260 260 261 262 276 281 290 291 289 291 285 276 279 279
nan nan nan nan nan nan 227 nan 240 238 240 241 243 249 nan nan nan nan nan nan nan nan nan nan nan nan nan nan nan nan 270 265 265 266 266 279 288 286 277 269 257 252 244 246
nan nan nan nan nan nan 224 230 240 nan 251 249 247 240 241 nan nan nan nan nan nan nan nan nan nan nan nan nan nan nan nan 272 268 269 272 274 279 281 279 277 275 257 252 253
nan nan nan nan nan nan nan nan nan nan nan nan nan nan nan nan nan nan nan nan nan nan nan nan nan nan nan nan nan nan nan nan nan 279 278 278 283 285 290 289 286 291 nan nan